When you browse on this site, cookies collect data to enhance your experience and personalize the content and advertising you see.
Visit our Privacy Policy to learn more. By continuing to use the site, you agree to this use of cookies and data.
  • In Deutschland
  • Länderverzeichnis
  • Für 7 Tage
  • Wassertemperatur
  • Satellitenkarten
  • Wetterkarte
  • Widgets
  • user-avatar
    Anmelden

    Stündliche Wetter Oksford

    Heute, 19 Dezember, Mittwoch

    Zeit Temperatur Niederschläge Wind Luftdruck Luftfeuchtigkeit
    00:00 +5°C° 0 mm 4 m/S 746 mmHg 93%
    01:00 +5°C° 0 mm 4 m/S 746 mmHg 93%
    02:00 +5°C° 0 mm 4 m/S 746 mmHg 92%
    03:00 +5°C° 0 mm 4 m/S 746 mmHg 92%
    04:00 +5°C° 0.3 mm 4 m/S 746 mmHg 92%
    05:00 +5°C° 0.3 mm 4 m/S 746 mmHg 92%
    06:00 +6°C° 0.3 mm 4 m/S 747 mmHg 92%
    07:00 +6°C° 0.1 mm 4 m/S 747 mmHg 91%
    08:00 +6°C° 0.1 mm 4 m/S 747 mmHg 91%
    09:00 +5°C° 0.1 mm 4 m/S 747 mmHg 90%
    10:00 +6°C° 0 mm 4 m/S 747 mmHg 86%
    11:00 +7°C° 0 mm 5 m/S 748 mmHg 83%
    12:00 +7°C° 0 mm 5 m/S 748 mmHg 79%
    13:00 +7°C° 0 mm 5 m/S 748 mmHg 80%
    14:00 +7°C° 0 mm 5 m/S 747 mmHg 81%
    15:00 +7°C° 0 mm 4 m/S 747 mmHg 82%
    16:00 +6°C° 0 mm 5 m/S 747 mmHg 83%
    17:00 +6°C° 0 mm 5 m/S 747 mmHg 84%
    18:00 +4°C° 0 mm 6 m/S 747 mmHg 85%
    19:00 +4°C° 0.1 mm 6 m/S 747 mmHg 86%
    20:00 +5°C° 0.1 mm 6 m/S 747 mmHg 87%
    21:00 +5°C° 0.1 mm 6 m/S 747 mmHg 88%
    22:00 +4°C° 0 mm 6 m/S 747 mmHg 88%
    23:00 +5°C° 0 mm 5 m/S 747 mmHg 88%

    Morgen, 20 Dezember, Donnerstag

    Zeit Temperatur Niederschläge Wind Luftdruck Luftfeuchtigkeit
    00:00 +5°C° 0 mm 5 m/S 747 mmHg 88%
    01:00 +5°C° 0 mm 5 m/S 747 mmHg 87%
    02:00 +5°C° 0 mm 5 m/S 748 mmHg 87%
    03:00 +5°C° 0 mm 5 m/S 748 mmHg 87%
    04:00 +5°C° 0 mm 5 m/S 748 mmHg 87%
    05:00 +4°C° 0 mm 6 m/S 748 mmHg 88%
    06:00 +4°C° 0 mm 6 m/S 749 mmHg 88%
    07:00 +4°C° 0 mm 6 m/S 749 mmHg 88%
    08:00 +4°C° 0 mm 6 m/S 750 mmHg 88%
    09:00 +5°C° 0 mm 6 m/S 750 mmHg 87%
    10:00 +5°C° 0.1 mm 6 m/S 750 mmHg 84%
    11:00 +6°C° 0.1 mm 7 m/S 750 mmHg 81%
    12:00 +8°C° 0.1 mm 7 m/S 751 mmHg 78%
    13:00 +8°C° 0.2 mm 7 m/S 751 mmHg 78%
    14:00 +7°C° 0.2 mm 6 m/S 751 mmHg 79%
    15:00 +7°C° 0.2 mm 6 m/S 751 mmHg 80%
    16:00 +7°C° 0.1 mm 6 m/S 751 mmHg 82%
    17:00 +6°C° 0.1 mm 5 m/S 751 mmHg 84%
    18:00 +6°C° 0.1 mm 5 m/S 751 mmHg 86%
    19:00 +6°C° 0.1 mm 4 m/S 750 mmHg 87%
    20:00 +5°C° 0.1 mm 4 m/S 750 mmHg 88%
    21:00 +5°C° 0.1 mm 3 m/S 750 mmHg 89%
    22:00 +6°C° 1 mm 4 m/S 749 mmHg 91%
    23:00 +7°C° 1 mm 4 m/S 748 mmHg 94%

    übermorgen, 21 Dezember, Freitag

    Zeit Temperatur Niederschläge Wind Luftdruck Luftfeuchtigkeit
    00:00 +8°C° 1 mm 4 m/S 747 mmHg 96%
    01:00 +9°C° 0.8 mm 5 m/S 745 mmHg 95%
    02:00 +9°C° 0.8 mm 6 m/S 744 mmHg 95%
    03:00 +10°C° 0.8 mm 6 m/S 743 mmHg 94%
    04:00 +11°C° 0.2 mm 7 m/S 743 mmHg 92%
    05:00 +11°C° 0.2 mm 8 m/S 742 mmHg 91%
    06:00 +12°C° 0.2 mm 9 m/S 742 mmHg 89%
    07:00 +11°C° 0.1 mm 9 m/S 743 mmHg 85%
    08:00 +9°C° 0.1 mm 10 m/S 744 mmHg 81%
    09:00 +7°C° 0.1 mm 10 m/S 745 mmHg 77%
    10:00 +7°C° 0 mm 10 m/S 746 mmHg 75%
    11:00 +7°C° 0 mm 9 m/S 747 mmHg 74%
    12:00 +7°C° 0 mm 9 m/S 748 mmHg 72%
    13:00 +8°C° 0 mm 9 m/S 748 mmHg 73%
    14:00 +9°C° 0 mm 8 m/S 748 mmHg 74%
    15:00 +9°C° 0 mm 8 m/S 749 mmHg 75%
    16:00 +9°C° 0 mm 8 m/S 749 mmHg 77%
    17:00 +9°C° 0 mm 8 m/S 749 mmHg 80%
    18:00 +9°C° 0 mm 8 m/S 749 mmHg 82%
    19:00 +7°C° 0 mm 8 m/S 749 mmHg 84%
    20:00 +8°C° 0 mm 7 m/S 749 mmHg 86%
    21:00 +8°C° 0 mm 7 m/S 749 mmHg 88%
    22:00 +8°C° 0.1 mm 7 m/S 749 mmHg 86%
    23:00 +7°C° 0.1 mm 8 m/S 748 mmHg 85%

    22 Dezember, Samstag

    Zeit Temperatur Niederschläge Wind Luftdruck Luftfeuchtigkeit
    00:00 +9°C° 0.1 mm 8 m/S 748 mmHg 84%
    01:00 +7°C° 0.1 mm 8 m/S 748 mmHg 84%
    02:00 +7°C° 0.1 mm 8 m/S 748 mmHg 83%
    03:00 +8°C° 0.1 mm 7 m/S 748 mmHg 83%
    04:00 +8°C° 0 mm 7 m/S 749 mmHg 83%
    05:00 +8°C° 0 mm 7 m/S 749 mmHg 83%
    06:00 +8°C° 0 mm 7 m/S 750 mmHg 83%
    07:00 +7°C° 0 mm 6 m/S 751 mmHg 83%
    08:00 +7°C° 0 mm 6 m/S 752 mmHg 83%
    09:00 +6°C° 0 mm 5 m/S 753 mmHg 83%
    10:00 +7°C° 0 mm 6 m/S 753 mmHg 80%
    11:00 +8°C° 0 mm 7 m/S 754 mmHg 78%
    12:00 +8°C° 0 mm 7 m/S 754 mmHg 76%
    13:00 +8°C° 0 mm 7 m/S 754 mmHg 76%
    14:00 +8°C° 0 mm 6 m/S 755 mmHg 75%
    15:00 +8°C° 0 mm 6 m/S 755 mmHg 75%
    16:00 +7°C° 0 mm 5 m/S 756 mmHg 77%
    17:00 +6°C° 0 mm 5 m/S 756 mmHg 80%
    18:00 +6°C° 0 mm 5 m/S 757 mmHg 82%
    19:00 +5°C° 0 mm 4 m/S 757 mmHg 83%
    20:00 +5°C° 0 mm 4 m/S 757 mmHg 84%
    21:00 +5°C° 0 mm 4 m/S 758 mmHg 86%
    22:00 +5°C° 0 mm 3 m/S 758 mmHg 87%
    23:00 +4°C° 0 mm 3 m/S 758 mmHg 88%

    23 Dezember, Sonntag

    Zeit Temperatur Niederschläge Wind Luftdruck Luftfeuchtigkeit
    00:00 +4°C° 0 mm 3 m/S 758 mmHg 89%
    01:00 +4°C° 0 mm 3 m/S 759 mmHg 89%
    02:00 +4°C° 0 mm 3 m/S 759 mmHg 90%
    03:00 +5°C° 0 mm 2 m/S 759 mmHg 90%
    04:00 +5°C° 0 mm 2 m/S 759 mmHg 91%
    05:00 +5°C° 0 mm 2 m/S 759 mmHg 91%
    06:00 +6°C° 0 mm 1 m/S 759 mmHg 91%
    07:00 +6°C° 0 mm 1 m/S 759 mmHg 90%
    08:00 +6°C° 0 mm 1 m/S 760 mmHg 89%
    09:00 +6°C° 0 mm 1 m/S 760 mmHg 88%
    10:00 +7°C° 0 mm 1 m/S 760 mmHg 87%
    11:00 +8°C° 0 mm 1 m/S 760 mmHg 86%
    12:00 +7°C° 0 mm 2 m/S 760 mmHg 85%
    13:00 +7°C° 0.4 mm 2 m/S 759 mmHg 87%
    14:00 +8°C° 0.4 mm 1 m/S 759 mmHg 89%
    15:00 +7°C° 0.4 mm 1 m/S 759 mmHg 92%
    16:00 +6°C° 0.4 mm 2 m/S 759 mmHg 92%
    17:00 +6°C° 0.4 mm 2 m/S 759 mmHg 93%
    18:00 +6°C° 0.4 mm 2 m/S 759 mmHg 94%
    19:00 +6°C° 0.5 mm 2 m/S 759 mmHg 94%
    20:00 +5°C° 0.5 mm 3 m/S 760 mmHg 93%
    21:00 +5°C° 0.5 mm 3 m/S 760 mmHg 93%
    22:00 +5°C° 0.6 mm 3 m/S 760 mmHg 93%
    23:00 +5°C° 0.6 mm 3 m/S 760 mmHg 92%

    24 Dezember, Montag

    Zeit Temperatur Niederschläge Wind Luftdruck Luftfeuchtigkeit
    00:00 +5°C° 0.6 mm 3 m/S 760 mmHg 92%
    01:00 +5°C° 1.1 mm 3 m/S 760 mmHg 93%
    02:00 +5°C° 1.1 mm 3 m/S 760 mmHg 94%
    03:00 +5°C° 1.1 mm 3 m/S 760 mmHg 94%
    04:00 +5°C° 0.3 mm 3 m/S 761 mmHg 94%
    05:00 +5°C° 0.3 mm 3 m/S 761 mmHg 93%
    06:00 +5°C° 0.3 mm 4 m/S 761 mmHg 93%
    07:00 +5°C° 0.3 mm 4 m/S 761 mmHg 93%
    08:00 +5°C° 0.3 mm 4 m/S 761 mmHg 93%
    09:00 +5°C° 0.3 mm 4 m/S 762 mmHg 93%
    10:00 +5°C° 0.2 mm 4 m/S 762 mmHg 93%
    11:00 +5°C° 0.2 mm 4 m/S 762 mmHg 92%
    12:00 +5°C° 0.2 mm 4 m/S 762 mmHg 92%
    13:00 +5°C° 0.1 mm 4 m/S 762 mmHg 92%
    14:00 +5°C° 0.1 mm 4 m/S 762 mmHg 92%
    15:00 +5°C° 0.1 mm 4 m/S 762 mmHg 93%
    16:00 +5°C° 0.1 mm 4 m/S 762 mmHg 93%
    17:00 +5°C° 0.1 mm 4 m/S 762 mmHg 93%
    18:00 +5°C° 0.1 mm 4 m/S 762 mmHg 93%
    19:00 +5°C° 0 mm 4 m/S 762 mmHg 93%
    20:00 +5°C° 0 mm 3 m/S 762 mmHg 94%
    21:00 +5°C° 0 mm 3 m/S 762 mmHg 94%
    22:00 +5°C° 0 mm 3 m/S 761 mmHg 94%
    23:00 +5°C° 0 mm 3 m/S 761 mmHg 93%
    Mehr zeigen